• Join FlightAware (Why Join?)
  • Login
  • US Flag 
10:03AM EST


 

Airport Tracker/Info


-or-


 

Live Flight TrackerFlight Track Log ✈ AWE1710 ✈ 16-Jun-2013 ✈ KCLT - KMCO

Flight Track Log - Related Links

Times and Time Zones

All times are in EDT time to prevent confusion due to time zone crossing. See the AWE1710 flight status page for this flight to view local times or setup timezone preferences in your user account.

Time Position Orientation Groundspeed Altitude Reporting Facility
EDT Latitude Longitude Course Direction KTS MPH feet Rate Location/Type
01:20PM 35.1908 -80.9356 193° South 188 216 2,000  Level Atlanta Center
01:21PM 35.1281 -80.9278 174° South 221 254 3,700 1,920 Climbing Atlanta Center
01:22PM 35.0547 -80.9153 172° South 264 304 6,000 2,340 Climbing Atlanta Center
01:23PM 34.7358 -80.9763 180° South  Level Estimated
01:23PM 34.9772 -80.9056 174° South 279 321 8,600  Level Atlanta Center
01:24PM 34.6163 -80.9830 180° South  Level Estimated
01:24PM 34.8939 -80.9061 180° South 290 334 10,600  Level Atlanta Center
01:25PM 34.4968 -80.9898 193° South  Level Estimated
01:26PM 34.6636 -80.9008 179° South 352 405 15,200  Level Jacksonville Center
01:27PM 34.5592 -80.8933 177° South 366 421 16,900 1,200 Climbing Jacksonville Center
01:28PM 34.4444 -80.9011 183° South 383 441 17,700 1,080 Climbing Jacksonville Center
01:29PM 34.3278 -80.9061 182° South 414 476 19,100 1,320 Climbing Jacksonville Center
01:30PM 34.2089 -80.9139 183° South 425 489 20,400 1,320 Climbing Jacksonville Center
01:31PM 34.0861 -80.9242 184° South 431 496 21,800 1,320 Climbing Jacksonville Center
01:32PM 33.9692 -80.9294 182° South 456 525 23,100 1,200 Climbing Jacksonville Center
01:33PM 33.8422 -80.9422 185° South 463 533 24,300 1,140 Climbing Jacksonville Center
01:34PM 33.7150 -80.9500 183° South 463 533 25,400 1,200 Climbing Jacksonville Center
01:35PM 33.5878 -80.9578 183° South 458 527 26,800 1,200 Climbing Jacksonville Center
01:36PM 33.4608 -80.9681 184° South 458 527 27,900 540 Climbing Jacksonville Center
01:37PM 33.3314 -80.9733 182° South 458 527 27,900  Level Jacksonville Center
01:38PM 33.2064 -80.9836 184° South 458 527 27,900  Level Jacksonville Center
01:39PM 33.0769 -80.9911 183° South 458 527 28,000  Climbing Jacksonville Center
01:40PM 32.9478 -81.0014 184° South 458 527 28,000 -60 Level Jacksonville Center
01:41PM 32.8206 -81.0114 184° South 463 533 27,900 -60 Descending Jacksonville Center
01:42PM 32.6933 -81.0167 182° South 463 533 27,900  Level Jacksonville Center
01:43PM 32.5642 -81.0267 184° South 463 533 28,000  Climbing Jacksonville Center
01:44PM 32.4369 -81.0367 184° South 463 533 27,900  Descending Jacksonville Center
01:45PM 32.3117 -81.0442 183° South 457 526 28,000  Climbing Jacksonville Center
01:46PM 32.1739 -81.0494 182° South 458 527 28,000  Level Jacksonville Center
01:47PM 32.0447 -81.0617 185° South 468 539 28,000 -60 Level Jacksonville Center
01:48PM 31.9303 -81.0908 192° South 468 539 27,900  Descending Jacksonville Center
01:49PM 31.7953 -81.1278 193° South 461 531 28,000  Climbing Jacksonville Center
01:50PM 31.6703 -81.1594 192° South 454 522 28,000  Level Jacksonville Center
01:51PM 31.5581 -81.1908 193° South 459 528 28,000  Level Jacksonville Center
01:52PM 31.4247 -81.2272 193° South 454 522 28,000 -60 Level Jacksonville Center
01:53PM 31.3125 -81.2561 192° South 454 522 27,900 -60 Descending Jacksonville Center
01:54PM 31.1872 -81.2631 183° South 454 522 27,900  Level Jacksonville Center
01:55PM 31.0619 -81.2531 176° South 449 517 28,000  Climbing Jacksonville Center
01:56PM 30.9344 -81.2433 176° South 457 526 27,900 -60 Descending Jacksonville Center
01:57PM 30.8111 -81.2333 176° South 462 532 27,900  Level Jacksonville Center
01:58PM 30.6814 -81.2233 176° South 457 526 28,000  Climbing Jacksonville Center
01:59PM 30.5539 -81.2111 175° South 462 532 28,000  Level Jacksonville Center
02:00PM 30.4286 -81.2039 177° South 462 532 28,000 -60 Level Jacksonville Center
02:01PM 30.3011 -81.1917 175° South 462 532 27,900 -60 Descending Jacksonville Center
02:02PM 30.1758 -81.1819 176° South 462 532 27,900  Level Jacksonville Center
02:03PM 30.0358 -81.1722 177° South 462 532 27,900 -540 Level Jacksonville Center
02:04PM 29.9125 -81.1625 176° South 462 532 26,900 -1,440 Descending Jacksonville Center
02:05PM 29.7933 -81.1528 176° South 450 518 25,100 -1,980 Descending Jacksonville Center
02:06PM 29.6761 -81.1428 176° South 438 504 23,000 -2,100 Descending Jacksonville Center
02:07PM 29.5592 -81.1378 178° South 426 490 20,900 -1,980 Descending Jacksonville Center
02:08PM 29.4650 -81.1203 171° South 403 464 19,100 -1,800 Descending Jacksonville Center
02:09PM 29.3544 -81.1175 179° South 397 457 17,300 -1,980 Descending Jacksonville Center
02:10PM 29.2478 -81.1122 178° South 391 450 15,200 -2,100 Descending Jacksonville Center
02:11PM 29.1456 -81.1022 175° South 380 437 13,200 -1,560 Descending Jacksonville Center
02:12PM 29.0472 -81.0944 176° South 369 425 12,100 -840 Descending Jacksonville Center
02:13PM 28.9636 -81.0772 170° South 342 394 11,600 -960 Descending Jacksonville Center
02:14PM 28.8839 -81.0453 161° South 312 359 10,200 -1,680 Descending Jacksonville Center
02:15PM 28.8500 -81.0333 163° South 295 339 9,300 -1,980 Descending Orlando TRACON
02:16PM 28.7667 -81.0500 190° South 273 314 7,400 -1,680 Descending Orlando TRACON
02:17PM 28.7500 -81.1333 257° West 274 315 6,000 -840 Descending Orlando TRACON
02:18PM 28.7333 -81.2333 259° West 210 242 5,600 -780 Descending Orlando TRACON
02:19PM 28.7000 -81.2833 233° Southwest 204 235 4,300 -900 Descending Orlando TRACON
02:20PM 28.6500 -81.2833 180° South 205 236 3,900 -720 Descending Orlando TRACON
02:21PM 28.6000 -81.2833 180° South 197 227 3,000 -1,020 Descending Orlando TRACON